W8XLR-2 Weather Reports


time (UTC)temp
F
wind
direction
speed
knots
gust
knots
rain 1hr
in
rain 24hr
in
rain mn
in
humidity
%
barometer
mb
20260506123648 45 346 1.7 2.6 0.01 1.00 0.50 97 1010.7
20260506122648 45 19 0.9 3.5 0.01 1.00 0.50 97 1010.9
20260506122005 45 19 0.9 3.5 0.01 1.00 0.50 97 1010.9
20260506121905 45 19 0.9 3.5 0.01 1.00 0.50 97 1010.9
20260506121648 45 19 0.9 3.5 0.01 1.00 0.50 97 1010.9
20260506120651 45 352 0.0 2.6 0.01 1.00 0.50 97 1010.9
20260506120007 45 307 0.0 2.6 0.00 0.99 0.49 97 1011.1
20260506115648 45 307 0.0 2.6 0.00 0.99 0.49 97 1011.1
20260506114850 45 307 0.0 2.6 0.00 0.99 0.49 97 1011.1
20260506114651 45 307 0.0 2.6 0.00 0.99 0.49 97 1011.1
20260506113653 45 329 0.9 3.5 0.01 0.99 0.49 97 1010.8
20260506112656 45 338 0.9 3.5 0.04 0.99 0.49 97 1010.6
20260506111802 45 338 0.9 3.5 0.04 0.99 0.49 97 1010.6
20260506111648 45 338 0.9 3.5 0.04 0.99 0.49 97 1010.6
20260506111008 45 51 0.9 3.5 0.06 0.99 0.49 97 1009.9
20260506110813 45 51 0.9 3.5 0.06 0.99 0.49 97 1009.9
20260506110651 45 51 0.9 3.5 0.06 0.99 0.49 97 1009.9
20260506110007 45 55 1.7 5.2 0.11 0.99 0.49 97 1009.4
20260506105818 45 55 1.7 5.2 0.11 0.99 0.49 97 1009.4
20260506105648 45 55 1.7 5.2 0.11 0.99 0.49 97 1009.4
20260506105007 45 55 1.7 5.2 0.11 0.99 0.49 97 1009.4
20260506104650 45 55 1.7 5.2 0.11 0.99 0.49 97 1009.4
20260506104008 45 352 0.9 4.3 0.10 0.98 0.48 97 1010.0
20260506103651 45 352 0.9 4.3 0.10 0.98 0.48 97 1010.0
20260506102655 45 335 0.9 2.6 0.08 0.95 0.45 97 1010.2
20260506101649 45 335 0.9 2.6 0.08 0.95 0.45 97 1010.2
20260506100733 45 330 0.9 2.6 0.07 0.93 0.43 97 1010.2
20260506100652 45 330 0.9 2.6 0.07 0.93 0.43 97 1010.2
20260506095648 45 347 0.9 4.3 0.03 0.88 0.38 96 1010.0
20260506094650 45 347 0.9 4.3 0.03 0.88 0.38 96 1010.0
20260506093653 45 334 0.9 3.5 0.06 0.88 0.38 96 1009.8
20260506092707 46 354 0.9 4.3 0.08 0.87 0.37 96 1009.6
20260506091648 46 354 0.9 4.3 0.08 0.87 0.37 96 1009.6
20260506090649 46 350 1.7 6.1 0.10 0.86 0.36 96 1009.7
20260506085650 47 342 1.7 3.5 0.11 0.85 0.35 96 1009.7
20260506084648 47 342 1.7 3.5 0.11 0.85 0.35 96 1009.7
20260506083651 47 14 0.9 2.6 0.10 0.82 0.32 96 1009.7
20260506082651 48 339 0.9 3.5 0.09 0.79 0.29 96 1009.6
20260506081648 48 339 0.9 3.5 0.09 0.79 0.29 96 1009.6
20260506080652 48 339 0.9 3.5 0.07 0.76 0.26 96 1009.3
20260506073009 49 45 0.9 2.6 0.07 0.70 0.20 96 1009.2
20260506072902 49 45 0.9 2.6 0.07 0.70 0.20 96 1009.2
20260506072653 49 45 0.9 2.6 0.07 0.70 0.20 96 1009.2
20260506071648 49 45 0.9 2.6 0.07 0.70 0.20 96 1009.2
20260506071009 49 81 0.9 1.7 0.07 0.69 0.19 96 1009.2
20260506070649 49 81 0.9 1.7 0.07 0.69 0.19 96 1009.2
20260506061648 49 59 0.9 2.6 0.05 0.63 0.13 96 1010.0
20260506060724 50 350 0.0 1.7 0.06 0.62 0.12 96 1009.9
20260506060650 50 350 0.0 1.7 0.06 0.62 0.12 96 1009.9
20260506050648 50 39 0.9 2.6 0.06 0.56 0.06 96 1010.6
20260506044744 50 359 0.9 3.5 0.05 0.54 0.04 96 1010.7
20260506044650 50 359 0.9 3.5 0.05 0.54 0.04 96 1010.7
20260506043649 50 49 0.9 3.5 0.06 0.53 0.03 96 1010.8
20260506042727 50 357 0.9 1.7 0.09 0.51 0.01 96 1011.0
20260506042647 50 357 0.9 1.7 0.09 0.51 0.01 96 1011.0
20260506041653 50 357 0.9 1.7 0.09 0.51 0.01 96 1011.0
20260506040651 50 347 0.9 1.7 0.12 0.50 0.00 96 1011.2
20260506035649 51 336 0.0 2.6 0.14 0.49 0.49 96 1011.4
20260506034648 51 336 0.0 2.6 0.14 0.49 0.49 96 1011.4
20260506033649 51 310 0.9 2.6 0.13 0.47 0.47 95 1011.4
20260506032830 52 328 0.9 1.7 0.10 0.42 0.42 96 1011.1
20260506032648 52 328 0.9 1.7 0.10 0.42 0.42 96 1011.1
20260506031649 52 328 0.9 1.7 0.10 0.42 0.42 96 1011.1
20260506030649 53 23 0.9 1.7 0.11 0.38 0.38 95 1011.0
20260506025647 53 77 0.0 1.7 0.11 0.35 0.35 95 1011.0
20260506024648 53 77 0.0 1.7 0.11 0.35 0.35 95 1011.0
20260506023652 53 57 0.9 3.5 0.13 0.34 0.34 95 1010.9
20260506022650 54 32 0.9 3.5 0.11 0.32 0.32 95 1011.2
20260506021650 54 32 0.9 3.5 0.11 0.32 0.32 95 1011.2
20260506020651 54 65 0.0 2.6 0.07 0.27 0.27 95 1010.9
20260506015648 54 90 0.0 1.7 0.07 0.24 0.24 95 1010.9
20260506014648 54 90 0.0 1.7 0.07 0.24 0.24 95 1010.9
20260506013650 55 91 0.9 1.7 0.09 0.21 0.21 95 1010.9
20260506012647 55 102 0.9 2.6 0.16 0.21 0.21 95 1010.7
20260506011648 55 102 0.9 2.6 0.16 0.21 0.21 95 1010.7
20260506010648 55 105 0.9 1.7 0.16 0.20 0.20 94 1010.6
20260506005649 56 112 0.0 2.6 0.13 0.17 0.17 93 1010.9
20260506004738 56 112 0.0 2.6 0.13 0.17 0.17 93 1010.9
20260506004652 56 112 0.0 2.6 0.13 0.17 0.17 93 1010.9
20260506003655 56 328 2.6 7.0 0.08 0.12 0.12 92 1010.9
20260506002650 58 334 0.9 2.6 0.01 0.05 0.05 93 1010.8
20260506001809 58 334 0.9 2.6 0.01 0.05 0.05 93 1010.8
20260506001648 58 334 0.9 2.6 0.01 0.05 0.05 93 1010.8
20260506000648 58 73 1.7 4.3 0.00 0.04 0.04 92 1010.3
20260505235814 59 27 0.9 3.5 0.00 0.04 0.04 92 1010.0
20260505235649 59 27 0.9 3.5 0.00 0.04 0.04 92 1010.0
20260505234651 59 27 0.9 3.5 0.00 0.04 0.04 92 1010.0
20260505233746 60 5 0.9 3.5 0.00 0.04 0.04 92 1010.0
20260505233648 60 5 0.9 3.5 0.00 0.04 0.04 92 1010.0
20260505232727 61 269 0.0 1.7 0.00 0.04 0.04 92 1010.0
20260505232650 61 269 0.0 1.7 0.00 0.04 0.04 92 1010.0
20260505231648 61 269 0.0 1.7 0.00 0.04 0.04 92 1010.0
20260505230650 61 269 0.0 0.9 0.00 0.04 0.04 92 1009.9
20260505225733 61 269 0.0 0.9 0.00 0.04 0.04 91 1010.4
20260505225648 61 269 0.0 0.9 0.00 0.04 0.04 91 1010.4
20260505224841 61 269 0.0 0.9 0.00 0.04 0.04 91 1010.4
20260505224649 61 269 0.0 0.9 0.00 0.04 0.04 91 1010.4
20260505223648 61 269 0.0 1.7 0.00 0.04 0.04 91 1010.4
20260505222648 61 269 0.0 1.7 0.00 0.04 0.04 91 1010.5
20260505221648 61 269 0.0 1.7 0.00 0.04 0.04 91 1010.5
20260505220652 61 269 0.9 1.7 0.01 0.04 0.04 91 1010.3
20260505215649 61 269 0.9 1.7 0.03 0.04 0.04 90 1010.2
20260505214705 61 269 0.9 1.7 0.03 0.04 0.04 90 1010.2
20260505213650 61 269 0.0 1.7 0.03 0.04 0.04 89 1010.3
20260505212652 61 272 1.7 3.5 0.03 0.04 0.04 86 1010.3
20260505211649 61 272 1.7 3.5 0.03 0.04 0.04 86 1010.3
20260505210648 65 280 1.7 6.1 0.02 0.03 0.03 76 1010.5
20260505205648 67 274 0.9 2.6 0.00 0.01 0.01 69 1010.0
20260505204657 67 274 0.9 2.6 0.00 0.01 0.01 69 1010.0
20260505203650 68 271 1.7 3.5 0.00 0.01 0.01 64 1009.9
20260505202648 68 273 1.7 5.2 0.00 0.01 0.01 63 1009.9
20260505201649 68 273 1.7 5.2 0.00 0.01 0.01 63 1009.9
20260505200648 69 272 1.7 5.2 0.00 0.01 0.01 63 1009.9
20260505195655 68 269 2.6 7.0 0.00 0.01 0.01 63 1010.2
20260505194648 68 269 2.6 7.0 0.00 0.01 0.01 63 1010.2
20260505193650 68 270 1.7 5.2 0.00 0.01 0.01 63 1010.6
20260505192654 68 262 2.6 9.6 0.00 0.01 0.01 62 1010.6
20260505191647 68 262 2.6 9.6 0.00 0.01 0.01 62 1010.6
20260505190655 68 269 3.5 9.6 0.00 0.01 0.01 61 1010.7
20260505185652 70 260 3.5 8.7 0.00 0.01 0.01 59 1010.6
20260505185006 70 260 3.5 8.7 0.00 0.01 0.01 59 1010.6
20260505184651 70 260 3.5 8.7 0.00 0.01 0.01 59 1010.6
20260505183654 70 254 3.5 8.7 0.00 0.01 0.01 59 1010.4
20260505182647 70 243 4.3 10.4 0.00 0.01 0.01 59 1010.3
20260505181647 70 243 4.3 10.4 0.00 0.01 0.01 59 1010.3
20260505180650 71 248 3.5 8.7 0.00 0.01 0.01 58 1010.2
20260505175648 69 254 2.6 9.6 0.00 0.01 0.01 61 1010.2
20260505174648 69 254 2.6 9.6 0.00 0.01 0.01 61 1010.2
20260505173648 69 259 2.6 7.0 0.00 0.01 0.01 60 1010.2
20260505172650 70 260 3.5 9.6 0.00 0.01 0.01 60 1010.1
20260505171647 70 260 3.5 9.6 0.00 0.01 0.01 60 1010.1
20260505170648 71 238 3.5 8.7 0.00 0.01 0.01 58 1010.3
20260505165740 71 245 3.5 8.7 0.00 0.01 0.01 59 1010.2
20260505165648 71 245 3.5 8.7 0.00 0.01 0.01 59 1010.2
20260505164650 71 245 3.5 8.7 0.00 0.01 0.01 59 1010.2
20260505163650 71 255 3.5 10.4 0.00 0.01 0.01 58 1010.3
20260505162651 70 263 1.7 5.2 0.00 0.01 0.01 62 1009.9
20260505161649 70 263 1.7 5.2 0.00 0.01 0.01 62 1009.9
20260505160648 70 251 4.3 9.6 0.00 0.01 0.01 62 1010.1
20260505152726 68 257 4.3 7.8 0.00 0.01 0.01 68 1010.4
20260505152647 68 257 4.3 7.8 0.00 0.01 0.01 68 1010.4
20260505151653 68 257 4.3 7.8 0.00 0.01 0.01 68 1010.4
20260505150648 66 245 6.1 13.0 0.00 0.01 0.01 70 1010.0
20260505140648 62 230 4.3 7.8 0.01 0.01 0.01 78 1009.9
20260505124843 63 235 2.6 5.2 0.00 0.00 0.00 72 1009.7
20260505124649 63 235 2.6 5.2 0.00 0.00 0.00 72 1009.7